Weather History for WLGAV - March, 2013

Change the Weather History Date:

Sunday, March 17, 2013

  Actual Average Record
Temperature  
Mean Temperature 43 °F -  
Max Temperature 51 °F - - ()
Min Temperature 35 °F - - ()
Degree Days  
Heating Degree Days 22    
Moisture  
Dew Point 33 °F    
Average Humidity 64    
Maximum Humidity 87    
Minimum Humidity 47    
Precipitation  
Precipitation 0.00 in - - ()
Sea Level Pressure  
Sea Level Pressure 30.11 in    
Wind  
Wind Speed 3 mph ()    
Max Wind Speed 9 mph    
Max Gust Speed -    
Visibility 6.2 miles    
Events      
T = Trace of Precipitation, MM = Missing Value Source: Averaged Metar Reports

Daily Weather History Graph

Daily Weather History Graph

Search for Another Location

Airport or City:

Trip Planner

Search our weather history database for the weather conditions in past years. The results will help you decide how hot, cold, wet, or windy it might be!

Date:

Astronomy

Mar. 17, 2013 Rise Set
Actual Time 6:32 AM EET 6:33 PM EET
Civil Twilight 6:06 AM EET 6:59 PM EET
Nautical Twilight 5:35 AM EET 7:30 PM EET
Astronomical Twilight 5:04 AM EET 8:01 PM EET
Moon 9:36 AM EET (3/17) No Moon Set
Length of Visible Light 12h 53m
Length of Day
12h 00m
Waxing Crescent, 29% of the Moon is Illuminated
Mar 17
Waxing Crescent
Mar 19
First Quarter
Mar 27
Full
Apr 3
Last Quarter
Apr 10
New

Hourly Weather History & Observations

Time (EET) Temp. Windchill Dew Point Humidity Pressure Visibility Wind Dir Wind Speed Gust Speed Precip Events Conditions
12:20 AM 39.2 °F - 33.8 °F 81% 30.01 in 6.2 mi Variable 1.2 mph - N/A   Partly Cloudy
12:50 AM 42.8 °F 41.1 °F 35.6 °F 76% 30.04 in 6.2 mi Variable 3.5 mph - N/A   Partly Cloudy
1:20 AM 41.0 °F - 33.8 °F 76% 30.04 in 6.2 mi Variable 2.3 mph - N/A   Partly Cloudy
1:50 AM 42.8 °F - 33.8 °F 70% 30.04 in 6.2 mi Variable 2.3 mph - N/A   Scattered Clouds
2:20 AM 44.6 °F - 33.8 °F 66% 30.04 in 6.2 mi Variable 1.2 mph - N/A   Scattered Clouds
2:50 AM 42.8 °F - 33.8 °F 70% 30.06 in 6.2 mi Calm Calm - N/A   Scattered Clouds
3:20 AM 39.2 °F 35.9 °F 32.0 °F 75% 30.04 in 6.2 mi SSW 4.6 mph - N/A   Scattered Clouds
3:50 AM 39.2 °F 35.9 °F 33.8 °F 81% 30.04 in 6.2 mi West 4.6 mph - N/A   Scattered Clouds
4:20 AM 39.2 °F 37.0 °F 33.8 °F 81% 30.06 in 6.2 mi Variable 3.5 mph - N/A   Scattered Clouds
4:50 AM 39.2 °F 37.0 °F 33.8 °F 81% 30.06 in 6.2 mi Variable 3.5 mph - N/A   Scattered Clouds
5:20 AM 37.4 °F - 33.8 °F 87% 30.06 in 6.2 mi Variable 2.3 mph - N/A   Scattered Clouds
5:50 AM 39.2 °F 37.0 °F 33.8 °F 81% 30.06 in 6.2 mi Variable 3.5 mph - N/A   Scattered Clouds
6:20 AM 41.0 °F - 35.6 °F 81% 30.06 in 6.2 mi Calm Calm - N/A   Partly Cloudy
6:50 AM 39.2 °F - 32.0 °F 75% 30.09 in 6.2 mi South 2.3 mph - N/A   Partly Cloudy
7:20 AM 39.2 °F - 33.8 °F 81% 30.09 in 6.2 mi Variable 1.2 mph - N/A   Scattered Clouds
7:50 AM 42.8 °F - 35.6 °F 76% 30.09 in 6.2 mi Variable 2.3 mph - N/A   Partly Cloudy
8:20 AM 44.6 °F - 35.6 °F 71% 30.09 in 6.2 mi Calm Calm - N/A   Partly Cloudy
8:50 AM 48.2 °F - 33.8 °F 58% 30.12 in 6.2 mi Variable 1.2 mph - N/A   Partly Cloudy
9:20 AM 50.0 °F - 32.0 °F 50% 30.12 in 6.2 mi North 5.8 mph - N/A   Scattered Clouds
9:50 AM 50.0 °F - 32.0 °F 50% 30.12 in 6.2 mi NNW 8.1 mph - N/A   Scattered Clouds
10:20 AM 50.0 °F - 30.2 °F 47% 30.12 in 6.2 mi NNW 5.8 mph - N/A   Scattered Clouds
10:50 AM 50.0 °F - 30.2 °F 47% 30.12 in 6.2 mi North 5.8 mph - N/A   Mostly Cloudy
11:20 AM 50.0 °F - 30.2 °F 47% 30.12 in 6.2 mi NNE 5.8 mph - N/A   Mostly Cloudy
11:50 AM 50.0 °F - 33.8 °F 54% 30.12 in 6.2 mi Variable 2.3 mph - N/A   Mostly Cloudy
12:20 PM 50.0 °F - 32.0 °F 50% 30.12 in 6.2 mi SSW 4.6 mph - N/A   Mostly Cloudy
12:50 PM 50.0 °F - 32.0 °F 50% 30.15 in 6.2 mi East 4.6 mph - N/A   Mostly Cloudy
1:20 PM 50.0 °F - 32.0 °F 50% 30.12 in 6.2 mi ENE 9.2 mph - N/A   Mostly Cloudy
1:50 PM 50.0 °F - 30.2 °F 47% 30.12 in 6.2 mi Variable 3.5 mph - N/A   Mostly Cloudy
2:20 PM 51.8 °F - 32.0 °F 47% 30.12 in 6.2 mi Variable 3.5 mph - N/A   Mostly Cloudy
2:50 PM 51.8 °F - 32.0 °F 47% 30.12 in 6.2 mi ENE 9.2 mph - N/A   Mostly Cloudy
3:20 PM 51.8 °F - 33.8 °F 50% 30.12 in 6.2 mi East 5.8 mph - N/A   Scattered Clouds
3:50 PM 51.8 °F - 33.8 °F 50% 30.12 in 6.2 mi East 6.9 mph - N/A   Scattered Clouds
4:20 PM 51.8 °F - 33.8 °F 50% 30.12 in 6.2 mi ENE 8.1 mph - N/A   Scattered Clouds
4:50 PM 51.8 °F - 35.6 °F 54% 30.12 in 6.2 mi ENE 8.1 mph - N/A   Scattered Clouds
5:20 PM 50.0 °F - 35.6 °F 58% 30.12 in 6.2 mi East 4.6 mph - N/A   Scattered Clouds
5:50 PM 50.0 °F - 32.0 °F 50% 30.12 in 6.2 mi NNE 5.8 mph - N/A   Partly Cloudy
6:20 PM 48.2 °F - 33.8 °F 58% 30.15 in 6.2 mi NNE 4.6 mph - N/A   Scattered Clouds
6:50 PM 46.4 °F 44.3 °F 33.8 °F 62% 30.15 in 6.2 mi North 4.6 mph - N/A   Scattered Clouds
7:20 PM 46.4 °F 45.2 °F 33.8 °F 62% 30.15 in 6.2 mi North 3.5 mph - N/A   Scattered Clouds
7:50 PM 46.4 °F 44.3 °F 33.8 °F 62% 30.15 in 6.2 mi North 4.6 mph - N/A   Scattered Clouds
8:20 PM 46.4 °F 44.3 °F 35.6 °F 66% 30.15 in 6.2 mi West 4.6 mph - N/A   Scattered Clouds
8:50 PM 44.6 °F - 33.8 °F 66% 30.15 in 6.2 mi WSW 2.3 mph - N/A   Partly Cloudy
9:20 PM 42.8 °F - 32.0 °F 66% 30.18 in 6.2 mi WSW 2.3 mph - N/A   Scattered Clouds
9:50 PM 44.6 °F - 33.8 °F 66% 30.18 in 6.2 mi WSW 1.2 mph - N/A   Scattered Clouds
10:20 PM 42.8 °F 41.1 °F 33.8 °F 70% 30.18 in 6.2 mi WSW 3.5 mph - N/A   Scattered Clouds
10:50 PM 41.0 °F - 33.8 °F 76% 30.18 in 6.2 mi West 2.3 mph - N/A   Scattered Clouds
11:20 PM 35.6 °F 31.7 °F 32.0 °F 87% 30.18 in 6.2 mi West 4.6 mph - N/A   Mostly Cloudy
11:50 PM 35.6 °F - 32.0 °F 87% 30.18 in 6.2 mi Variable 1.2 mph - N/A   Mostly Cloudy